Location: ??
(35.5052°N, 139.7262°E)
Time: 18:23:46
(UTC+00:00)

Lacrosse 4 Rocket - Pass Details

Date: 20 June 2021
Orbit: 543 x 614 km, 68.0° (Epoch: 29 July)

Event Time Altitude Azimuth Distance (km) Brightness Sun altitude
Rises 17:15:41 0° 330° (NNW) 2,723 5.2 -20.8°
Reaches altitude 10° 17:17:56 10° 326° (NW) 1,819 4.2 -20.6°
Enters shadow 17:21:51 55° 251° (WSW) 654 1.3 -20.1°
